Aberdeen, SD

3:59 PM CDT on September 27, 2016 (GMT -0500)
Aberdeen Regional

Weather History for KABR - January, 2014

Change the Weather History Date:

Friday, January 24, 2014

  Actual Average Record
Temperature  
Mean Temperature 26 °F 12 °F  
Max Temperature 38 °F 23 °F 60 °F (1981)
Min Temperature 14 °F 1 °F -35 °F (1915)
Degree Days  
Heating Degree Days 39 53  
Month to date heating degree days 1313 1272  
Since 1 July heating degree days 5109 4763  
Cooling Degree Days 0 0  
Month to date cooling degree days 0 0  
Year to date cooling degree days 0 0  
Moisture  
Dew Point 25 °F    
Average Humidity 76    
Maximum Humidity 89    
Minimum Humidity 63    
Precipitation  
Precipitation T in 0.02 in 0.48 in (1956)
Month to date precipitation 0.12 0.38  
Year to date precipitation 0.12 0.38  
Snow  
Snow T in - - ()
Month to date snowfall 2.5  
Since 1 July snowfall 18.0  
Snow Depth 3.00 in    
Sea Level Pressure  
Sea Level Pressure 29.80 in    
Wind  
Wind Speed 17 mph (NW)    
Max Wind Speed 28 mph    
Max Gust Speed 35 mph    
Visibility 10 miles    
Events Snow    
T = Trace of Precipitation, MM = Missing Value Source: NWS Daily Summary

Daily Weather History Graph

Daily Weather History Graph

Search for Another Location

Airport or City:

Trip Planner

Search our weather history database for the weather conditions in past years. The results will help you decide how hot, cold, wet, or windy it might be!

Date:

Astronomy

Jan. 24, 2014 Rise Set
Actual Time 8:02 AM CST 5:29 PM CST
Civil Twilight 7:30 AM CST 6:01 PM CST
Nautical Twilight 6:54 AM CST 6:37 PM CST
Astronomical Twilight 6:19 AM CST 7:12 PM CST
Moon 1:27 AM CST (1/24) 11:51 AM CST (1/24)
Length of Visible Light 10h 30m
Length of Day
9h 26m
Last Quarter, 44% of the Moon is Illuminated
Jan 24
Last Quarter
Jan 30
New
Feb 6
First Quarter
Feb 14
Full
Feb 22
Last Quarter

Hourly Weather History & Observations

Time (CST) Temp. Windchill Dew Point Humidity Pressure Visibility Wind Dir Wind Speed Gust Speed Precip Events Conditions
12:53 AM 16.0 °F 1.7 °F 9.0 °F 74% 30.00 in 10.0 mi SSW 13.8 mph - N/A   Overcast
1:53 AM 21.0 °F 11.4 °F 12.9 °F 71% 29.96 in 10.0 mi SW 8.1 mph - N/A   Scattered Clouds
2:53 AM 26.1 °F 14.5 °F 15.1 °F 63% 29.92 in 10.0 mi WSW 13.8 mph - N/A   Overcast
3:53 AM 27.0 °F 15.6 °F 16.0 °F 63% 29.90 in 10.0 mi West 13.8 mph - N/A   Scattered Clouds
4:53 AM 28.9 °F 15.8 °F 19.0 °F 67% 29.88 in 10.0 mi WNW 20.7 mph 27.6 mph N/A   Mostly Cloudy
5:53 AM 27.0 °F 15.2 °F 19.9 °F 75% 29.88 in 10.0 mi WNW 15.0 mph - N/A   Clear
6:53 AM 27.0 °F 14.3 °F 21.0 °F 78% 29.87 in 10.0 mi WNW 17.3 mph - N/A   Clear
7:53 AM 28.0 °F 16.5 °F 21.9 °F 78% 29.86 in 10.0 mi WNW 15.0 mph - N/A   Clear
8:53 AM 30.9 °F 18.1 °F 25.0 °F 79% 29.85 in 10.0 mi WNW 21.9 mph 32.2 mph N/A   Clear
9:53 AM 32.0 °F 19.8 °F 26.1 °F 79% 29.83 in 10.0 mi WNW 20.7 mph 31.1 mph N/A   Scattered Clouds
10:53 AM 34.0 °F 23.4 °F 27.0 °F 75% 29.83 in 10.0 mi WNW 17.3 mph - N/A   Overcast
11:53 AM 34.0 °F 23.0 °F 28.0 °F 79% 29.81 in 10.0 mi WNW 18.4 mph 26.5 mph N/A   Overcast
12:53 PM 35.1 °F 24.8 °F 28.9 °F 78% 29.74 in 10.0 mi West 17.3 mph 25.3 mph N/A   Overcast
1:53 PM 34.0 °F 24.6 °F 30.0 °F 85% 29.68 in 10.0 mi West 13.8 mph - 0.00 in   Overcast
2:53 PM 36.0 °F 26.3 °F 30.9 °F 82% 29.65 in 10.0 mi West 16.1 mph - N/A   Overcast
3:53 PM 37.9 °F 28.2 °F 32.0 °F 79% 29.65 in 10.0 mi WNW 18.4 mph - N/A   Overcast
4:22 PM 37.9 °F 27.9 °F 32.0 °F 79% 29.60 in 10.0 mi NW 19.6 mph 29.9 mph N/A   Mostly Cloudy
4:53 PM 37.0 °F 25.4 °F 32.0 °F 82% 29.66 in 10.0 mi NW 25.3 mph 33.4 mph N/A   Mostly Cloudy
5:53 PM 36.0 °F 24.4 °F 30.9 °F 82% 29.71 in 10.0 mi NNW 23.0 mph 29.9 mph N/A   Overcast
6:53 PM 35.1 °F 24.8 °F 30.0 °F 82% 29.74 in 10.0 mi NNW 17.3 mph - N/A   Overcast
7:53 PM 35.1 °F 23.8 °F 30.0 °F 82% 29.76 in 10.0 mi NNW 20.7 mph - N/A   Mostly Cloudy
8:29 PM 34.0 °F 24.2 °F 30.9 °F 89% 29.72 in 10.0 mi NNW 15.0 mph - N/A   Overcast
8:53 PM 34.0 °F 23.4 °F 28.0 °F 79% 29.78 in 10.0 mi NNW 17.3 mph - 0.00 in   Overcast
9:00 PM 34.0 °F 23.4 °F 28.0 °F 79% 29.74 in 10.0 mi NNW 17.3 mph - N/A   Overcast
9:53 PM 33.1 °F 24.4 °F 28.9 °F 85% 29.78 in 10.0 mi NW 11.5 mph - N/A   Overcast
10:15 PM 34.0 °F 23.4 °F 28.9 °F 82% 29.75 in 10.0 mi NW 17.3 mph - N/A   Overcast
10:33 PM 34.0 °F 22.7 °F 28.9 °F 82% 29.76 in 10.0 mi NNW 19.6 mph - N/A   Overcast
10:53 PM 30.9 °F 19.8 °F 28.0 °F 89% 29.81 in 7.0 mi North 16.1 mph 29.9 mph 0.00 in Snow Light Snow
11:02 PM 30.0 °F 18.7 °F 27.0 °F 88% 29.78 in 9.0 mi NNE 16.1 mph - 0.00 in Snow Light Snow
11:35 PM 27.0 °F 14.3 °F 24.1 °F 89% 29.81 in 10.0 mi NE 17.3 mph - 0.00 in   Overcast
11:44 PM 25.0 °F 10.6 °F 21.9 °F 88% 29.82 in 10.0 mi NNE 20.7 mph 27.6 mph 0.00 in   Overcast
11:53 PM 25.0 °F 10.9 °F 21.0 °F 85% 29.86 in 10.0 mi NNE 19.6 mph 27.6 mph 0.00 in   Overcast